Flag for Germany Weather past 2 weeks in Fürstenfeldbruck, Bavaria, Germany

Now
64 °F

Broken clouds.


Feels Like: 64 °F
Forecast: 55 / 73 °F
Wind: 8 mph from Northeast

Location: Oberpfaffenhofen

Current Time: Jul 22, 2014 at 8:57:08 PM

Latest Report: Jul 22, 2014 at 6:50 PM


Visibility: 5 mi

Pressure: 29.98 "Hg

Humidity: 94%

Dew point: 63 °F

Location of FürstenfeldbruckLocation

Historic Weather in Fürstenfeldbruck — Graph

°F

Fürstenfeldbruck temperature yesterday

Maximum temperature yesterday: 63 °F (at 7:20 AM)
Minimum temperature yesterday: 59 °F (at 2:20 PM)
Average temperature yesterday: 61 °F

Past Weeks' High & Low Weather Summary

 TemperatureHumidityPressure
High90 °F (Jul 19, 5:50 PM)100% (Jul 16, 6:50 AM)30.24 "Hg (Jul 16, 6:50 AM)
Low50 °F (Jul 10, 6:50 AM)21% (Jul 19, 5:20 PM)29.80 "Hg (Jul 8, 9:20 AM)
Average66 °F68%29.99 "Hg
* Reported Jul 7 6:20 PM — Jul 22 6:50 PM, Fürstenfeldbruck, Weather by CustomWeather, © 2014

Note: Actual official high and low records may vary slightly from our data, if they occured in-between our weather recording intervals... More about our weather records

Advertising

Fürstenfeldbruck weather history for previous 24 hours

 ConditionsComfort  
Time TempWeatherWind HumidityBarometerVisibility
6:50 PM
Jul 22
64 °FBroken clouds.8 mph94%29.98 "Hg5 mi
6:20 PM66 °FLight rain. Fog.7 mph88%29.95 "Hg3 mi
5:50 PM66 °FRain. Fog.3 mph88%29.95 "Hg3 mi
5:20 PM66 °FRain. Fog.2 mph88%29.95 "Hg3 mi
4:50 PM64 °FLight rain. Fog.3 mph94%29.95 "Hg3 mi
4:20 PM64 °FLight rain. Fog.8 mph94%29.95 "Hg3 mi
3:50 PM64 °FLight rain. Broken clouds.8 mph94%29.95 "Hg6 mi
3:20 PM66 °FLight rain. Broken clouds.6 mph88%29.95 "HgN/A
2:50 PM64 °FLight rain. Broken clouds.5 mph88%29.95 "HgN/A
2:20 PM64 °FLight rain. Broken clouds.6 mph88%29.95 "Hg6 mi
1:50 PM64 °FLight rain. Broken clouds.6 mph88%29.95 "HgN/A
1:20 PM64 °FLight rain. Broken clouds.2 mph88%29.95 "HgN/A
12:50 PM64 °FBroken clouds.1 mph83%29.95 "HgN/A
12:20 PM64 °FPartly sunny.2 mph83%29.95 "HgN/A
11:50 AM63 °FPartly sunny.3 mph88%29.92 "HgN/A
11:20 AM63 °FBroken clouds.5 mph88%29.92 "HgN/A
10:50 AM63 °FBroken clouds.6 mph88%29.92 "Hg5 mi
10:20 AM63 °FBroken clouds.6 mph88%29.92 "HgN/A
9:50 AM63 °FPartly sunny.8 mph88%29.89 "HgN/A
9:20 AM61 °FSprinkles. Partly sunny.8 mph94%29.89 "HgN/A
8:50 AM61 °FPartly sunny.12 mph94%29.89 "HgN/A
8:20 AM61 °FMostly cloudy.9 mph94%29.89 "HgN/A
7:50 AM61 °FLight rain. More clouds than sun.8 mph88%29.89 "HgN/A
7:20 AM61 °FMore clouds than sun.9 mph88%29.86 "HgN/A
6:50 AM59 °FMore clouds than sun.6 mph94%29.86 "HgN/A
Weather by CustomWeather, © 2014

See weather overviewHow to use our weather pages